| time (UTC) | temp F | wind direction | speed knots | gust knots | rain 1hr in | rain 24hr in | rain mn in | humidity % | barometer mb |
| 20260906104531 | 57 | 331 | 0.0 | 0.0 | 0.00 | 0.01 | 0.00 | 93 | 1015.7 |
| 20260906103030 | 56 | 331 | 0.0 | 0.0 | 0.00 | 0.01 | 0.00 | 93 | 1015.5 |
| 20260906101531 | 56 | 331 | 0.0 | 0.0 | 0.00 | 0.01 | 0.00 | 93 | 1015.5 |
| 20260906100029 | 56 | 331 | 0.0 | 0.0 | 0.00 | 0.01 | 0.00 | 93 | 1015.5 |
| 20260906094528 | 56 | 331 | 0.0 | 0.0 | 0.00 | 0.01 | 0.00 | 93 | 1015.5 |
| 20260906093031 | 56 | 331 | 0.0 | 0.0 | 0.00 | 0.01 | 0.00 | 93 | 1015.3 |
| 20260906091522 | 55 | 331 | 0.0 | 0.0 | 0.00 | 0.01 | 0.00 | 93 | 1015.1 |
| 20260906090021 | 56 | 331 | 0.0 | 0.0 | 0.00 | 0.01 | 0.01 | 93 | 1015.0 |
| 20260906084521 | 56 | 331 | 0.0 | 0.0 | 0.00 | 0.01 | 0.01 | 93 | 1014.9 |
| 20260906083023 | 56 | 331 | 0.0 | 0.0 | 0.00 | 0.01 | 0.01 | 93 | 1014.7 |
| 20260906081525 | 55 | 331 | 0.0 | 0.0 | 0.00 | 0.01 | 0.01 | 93 | 1014.5 |
| 20260906080018 | 55 | 331 | 0.0 | 0.0 | 0.00 | 0.01 | 0.01 | 93 | 1014.4 |
| 20260906074518 | 55 | 331 | 0.0 | 0.0 | 0.00 | 0.01 | 0.01 | 93 | 1014.4 |
| 20260906073018 | 54 | 331 | 0.0 | 0.0 | 0.00 | 0.01 | 0.01 | 92 | 1014.4 |
| 20260906071520 | 55 | 331 | 0.0 | 0.0 | 0.00 | 0.01 | 0.01 | 92 | 1014.3 |
| 20260906070018 | 55 | 331 | 0.0 | 0.0 | 0.00 | 0.01 | 0.01 | 92 | 1014.3 |
| 20260906064520 | 55 | 331 | 0.0 | 0.0 | 0.00 | 0.01 | 0.01 | 92 | 1014.3 |
| 20260906063015 | 56 | 331 | 0.0 | 0.0 | 0.00 | 0.01 | 0.01 | 92 | 1014.3 |
| 20260906061513 | 56 | 331 | 0.0 | 0.0 | 0.00 | 0.01 | 0.01 | 92 | 1014.5 |
| 20260906060021 | 56 | 331 | 0.0 | 0.0 | 0.00 | 0.01 | 0.01 | 92 | 1014.5 |
| 20260906054512 | 56 | 331 | 0.0 | 0.0 | 0.00 | 0.01 | 0.01 | 91 | 1014.5 |
| 20260906053019 | 57 | 331 | 0.0 | 0.0 | 0.00 | 0.01 | 0.01 | 91 | 1014.4 |
| 20260906051510 | 57 | 331 | 0.0 | 0.0 | 0.00 | 0.01 | 0.01 | 91 | 1014.4 |
| 20260906050010 | 57 | 331 | 0.0 | 0.0 | 0.00 | 0.01 | 0.01 | 91 | 1014.3 |
| 20260906044510 | 57 | 331 | 0.0 | 0.0 | 0.00 | 0.01 | 0.01 | 91 | 1014.4 |
| 20260906043010 | 58 | 331 | 0.0 | 0.0 | 0.00 | 0.01 | 0.01 | 90 | 1014.5 |
| 20260906041512 | 58 | 331 | 0.0 | 0.0 | 0.00 | 0.01 | 0.01 | 90 | 1014.4 |
| 20260906040007 | 59 | 331 | 0.0 | 0.0 | 0.00 | 0.01 | 0.01 | 90 | 1014.3 |
| 20260906034506 | 59 | 331 | 0.0 | 0.0 | 0.00 | 0.01 | 0.01 | 90 | 1014.3 |
| 20260906033007 | 59 | 331 | 0.0 | 0.0 | 0.00 | 0.01 | 0.01 | 89 | 1014.3 |
| 20260906031504 | 59 | 331 | 0.0 | 0.0 | 0.00 | 0.01 | 0.01 | 89 | 1014.1 |
| 20260906030004 | 59 | 331 | 0.0 | 0.0 | 0.00 | 0.01 | 0.01 | 88 | 1014.0 |
| 20260906024502 | 60 | 331 | 0.0 | 0.0 | 0.00 | 0.01 | 0.01 | 87 | 1013.9 |
| 20260906023002 | 61 | 331 | 0.0 | 0.0 | 0.00 | 0.01 | 0.01 | 84 | 1014.0 |
| 20260906021510 | 61 | 331 | 0.0 | 0.0 | 0.00 | 0.01 | 0.01 | 82 | 1013.9 |
| 20260906020003 | 62 | 331 | 0.0 | 0.0 | 0.00 | 0.01 | 0.01 | 81 | 1013.9 |
| 20260906014503 | 63 | 335 | 0.0 | 0.0 | 0.00 | 0.01 | 0.01 | 80 | 1013.8 |
| 20260906013100 | 64 | 335 | 0.0 | 0.0 | 0.00 | 0.01 | 0.01 | 79 | 1013.6 |
| 20260906011612 | 64 | 335 | 0.0 | 0.0 | 0.00 | 0.01 | 0.01 | 79 | 1013.6 |
| 20260906010057 | 64 | 335 | 0.0 | 0.0 | 0.00 | 0.01 | 0.01 | 77 | 1013.4 |
| 20260906004556 | 65 | 335 | 0.0 | 1.7 | 0.00 | 0.01 | 0.01 | 77 | 1013.4 |
| 20260906003054 | 65 | 333 | 1.7 | 4.3 | 0.00 | 0.01 | 0.01 | 76 | 1013.1 |
| 20260906001600 | 66 | 9 | 1.7 | 4.3 | 0.00 | 0.01 | 0.01 | 74 | 1013.2 |
| 20260906000054 | 67 | 9 | 0.9 | 4.3 | 0.00 | 0.01 | 0.01 | 72 | 1012.8 |
| 20260905234553 | 67 | 9 | 0.0 | 2.6 | 0.00 | 0.01 | 0.01 | 70 | 1012.7 |
| 20260905233111 | 68 | 33 | 0.0 | 2.6 | 0.00 | 0.01 | 0.01 | 68 | 1012.7 |
| 20260905231557 | 69 | 349 | 0.0 | 5.2 | 0.00 | 0.01 | 0.01 | 67 | 1012.7 |
| 20260905230053 | 70 | 313 | 1.7 | 4.3 | 0.00 | 0.01 | 0.01 | 66 | 1012.6 |
| 20260905224610 | 71 | 355 | 1.7 | 7.0 | 0.00 | 0.01 | 0.01 | 64 | 1012.6 |
| 20260905223055 | 71 | 355 | 0.9 | 5.2 | 0.00 | 0.01 | 0.01 | 62 | 1012.6 |
| 20260905221553 | 72 | 350 | 0.0 | 6.1 | 0.00 | 0.01 | 0.01 | 62 | 1012.3 |
| 20260905220051 | 72 | 345 | 0.0 | 5.2 | 0.00 | 0.01 | 0.01 | 63 | 1012.3 |
| 20260905214554 | 72 | 360 | 2.6 | 7.8 | 0.00 | 0.01 | 0.01 | 62 | 1012.1 |
| 20260905213051 | 72 | 314 | 1.7 | 5.2 | 0.00 | 0.01 | 0.01 | 60 | 1012.1 |
| 20260905211551 | 75 | 346 | 2.6 | 7.0 | 0.00 | 0.01 | 0.01 | 54 | 1011.9 |
| 20260905210053 | 74 | 11 | 0.9 | 6.1 | 0.00 | 0.01 | 0.01 | 59 | 1012.0 |
| 20260905204552 | 74 | 21 | 0.0 | 6.1 | 0.00 | 0.01 | 0.01 | 59 | 1012.0 |
| 20260905203053 | 73 | 333 | 4.3 | 8.7 | 0.00 | 0.01 | 0.01 | 58 | 1012.0 |
| 20260905201558 | 73 | 348 | 3.5 | 7.8 | 0.00 | 0.01 | 0.01 | 58 | 1012.0 |
| 20260905200051 | 73 | 350 | 2.6 | 7.0 | 0.00 | 0.01 | 0.01 | 59 | 1011.9 |
| 20260905194549 | 73 | 345 | 3.5 | 7.8 | 0.00 | 0.01 | 0.01 | 56 | 1012.0 |
| 20260905193049 | 74 | 289 | 4.3 | 7.8 | 0.00 | 0.01 | 0.01 | 55 | 1011.9 |
| 20260905191552 | 76 | 350 | 0.9 | 4.3 | 0.00 | 0.01 | 0.01 | 56 | 1012.0 |
| 20260905190100 | 75 | 350 | 0.0 | 7.8 | 0.00 | 0.01 | 0.01 | 54 | 1012.0 |
| 20260905184602 | 75 | 290 | 1.7 | 4.3 | 0.00 | 0.01 | 0.01 | 55 | 1012.2 |
| 20260905183047 | 75 | 355 | 0.9 | 7.0 | 0.00 | 0.01 | 0.01 | 56 | 1012.3 |
| 20260905181545 | 74 | 306 | 0.0 | 7.0 | 0.00 | 0.01 | 0.01 | 57 | 1012.2 |
| 20260905180044 | 72 | 355 | 3.5 | 7.0 | 0.00 | 0.01 | 0.01 | 61 | 1012.4 |
| 20260905174553 | 73 | 343 | 2.6 | 5.2 | 0.00 | 0.01 | 0.01 | 56 | 1012.4 |
| 20260905173043 | 74 | 11 | 1.7 | 7.0 | 0.00 | 0.01 | 0.01 | 60 | 1012.5 |
| 20260905171540 | 71 | 323 | 3.5 | 7.8 | 0.00 | 0.01 | 0.01 | 63 | 1012.6 |
| 20260905170041 | 70 | 306 | 3.5 | 6.1 | 0.00 | 0.01 | 0.01 | 65 | 1012.7 |
| 20260905164540 | 70 | 293 | 1.7 | 7.0 | 0.00 | 0.01 | 0.01 | 62 | 1012.8 |
| 20260905163039 | 68 | 302 | 3.5 | 7.0 | 0.00 | 0.01 | 0.01 | 67 | 1013.0 |
| 20260905161539 | 70 | 348 | 4.3 | 7.0 | 0.00 | 0.01 | 0.01 | 65 | 1013.0 |
| 20260905160039 | 70 | 340 | 1.7 | 7.0 | 0.00 | 0.01 | 0.01 | 65 | 1013.0 |
| 20260905154539 | 70 | 315 | 2.6 | 7.8 | 0.00 | 0.01 | 0.01 | 67 | 1013.0 |
| 20260905153038 | 71 | 360 | 2.6 | 5.2 | 0.00 | 0.01 | 0.01 | 65 | 1012.8 |
| 20260905151536 | 70 | 340 | 3.5 | 8.7 | 0.00 | 0.01 | 0.01 | 68 | 1012.9 |
| 20260905150036 | 70 | 338 | 6.1 | 10.4 | 0.00 | 0.01 | 0.01 | 66 | 1012.9 |
| 20260905144540 | 71 | 326 | 1.7 | 7.0 | 0.00 | 0.01 | 0.01 | 67 | 1013.0 |
| 20260905143033 | 70 | 5 | 1.7 | 7.0 | 0.00 | 0.01 | 0.01 | 71 | 1013.1 |
| 20260905141535 | 71 | 51 | 1.7 | 5.2 | 0.00 | 0.01 | 0.01 | 70 | 1013.0 |
| 20260905140027 | 69 | 79 | 0.0 | 4.3 | 0.00 | 0.01 | 0.01 | 76 | 1013.0 |
| 20260905134522 | 65 | 74 | 0.0 | 7.0 | 0.00 | 0.01 | 0.01 | 87 | 1012.9 |
| 20260905133019 | 62 | 322 | 2.6 | 6.1 | 0.00 | 0.01 | 0.01 | 92 | 1013.0 |
| 20260905131537 | 61 | 318 | 1.7 | 7.8 | 0.00 | 0.01 | 0.01 | 93 | 1012.8 |
| 20260905130015 | 61 | 279 | 0.9 | 3.5 | 0.00 | 0.01 | 0.01 | 93 | 1012.9 |
| 20260905124533 | 60 | 279 | 0.0 | 2.6 | 0.00 | 0.01 | 0.01 | 94 | 1013.1 |
| 20260905123010 | 60 | 279 | 0.0 | 0.0 | 0.01 | 0.01 | 0.01 | 94 | 1013.0 |
| 20260905121520 | 59 | 279 | 0.0 | 0.0 | 0.01 | 0.01 | 0.01 | 93 | 1012.9 |
| 20260905120009 | 59 | 279 | 0.0 | 0.0 | 0.01 | 0.01 | 0.01 | 93 | 1013.0 |
| 20260905114519 | 58 | 279 | 0.0 | 0.0 | 0.01 | 0.01 | 0.01 | 93 | 1013.0 |
| 20260905113004 | 58 | 279 | 0.0 | 0.0 | 0.01 | 0.01 | 0.01 | 93 | 1012.9 |
| 20260905111503 | 58 | 279 | 0.0 | 0.0 | 0.00 | 0.00 | 0.00 | 93 | 1012.6 |
| 20260905110001 | 58 | 279 | 0.0 | 0.0 | 0.00 | 0.00 | 0.00 | 93 | 1012.2 |